• In Deutschland
  • Länderverzeichnis
  • Für 7 Tage
  • Wassertemperatur
  • Satellitenkarten
  • Wetterkarte
  • Widgets
  • user-avatar
    Anmelden

    Stündliche Wetter Paralia

    Heute, 16 Oktober, Dienstag

    Zeit Temperatur Niederschläge Wind Luftdruck Luftfeuchtigkeit
    00:00 +18°C° 0 mm 1 m/S 752 mmHg 81%
    01:00 +18°C° 0 mm 1 m/S 752 mmHg 82%
    02:00 +17°C° 0 mm 2 m/S 752 mmHg 82%
    03:00 +17°C° 0 mm 2 m/S 752 mmHg 82%
    04:00 +16°C° 0 mm 2 m/S 752 mmHg 82%
    05:00 +17°C° 0 mm 2 m/S 752 mmHg 80%
    06:00 +18°C° 0 mm 2 m/S 752 mmHg 78%
    07:00 +18°C° 0 mm 2 m/S 752 mmHg 76%
    08:00 +20°C° 0 mm 2 m/S 752 mmHg 69%
    09:00 +23°C° 0 mm 1 m/S 753 mmHg 62%
    10:00 +24°C° 0 mm 1 m/S 753 mmHg 56%
    11:00 +25°C° 0 mm 1 m/S 753 mmHg 54%
    12:00 +26°C° 0 mm 2 m/S 752 mmHg 52%
    13:00 +26°C° 0 mm 2 m/S 752 mmHg 50%
    14:00 +26°C° 0 mm 2 m/S 752 mmHg 52%
    15:00 +25°C° 0 mm 2 m/S 752 mmHg 54%
    16:00 +24°C° 0 mm 2 m/S 751 mmHg 56%
    17:00 +23°C° 0 mm 1 m/S 751 mmHg 61%
    18:00 +22°C° 0 mm 1 m/S 752 mmHg 66%
    19:00 +21°C° 0 mm 1 m/S 752 mmHg 71%
    20:00 +20°C° 0 mm 1 m/S 752 mmHg 73%
    21:00 +20°C° 0 mm 1 m/S 752 mmHg 74%
    22:00 +20°C° 0 mm 1 m/S 752 mmHg 75%
    23:00 +19°C° 0 mm 1 m/S 752 mmHg 75%

    Morgen, 17 Oktober, Mittwoch

    Zeit Temperatur Niederschläge Wind Luftdruck Luftfeuchtigkeit
    00:00 +19°C° 0 mm 1 m/S 752 mmHg 75%
    01:00 +19°C° 0 mm 1 m/S 751 mmHg 75%
    02:00 +18°C° 0 mm 2 m/S 751 mmHg 74%
    03:00 +17°C° 0 mm 2 m/S 751 mmHg 74%
    04:00 +17°C° 0 mm 2 m/S 750 mmHg 73%
    05:00 +18°C° 0 mm 2 m/S 750 mmHg 70%
    06:00 +18°C° 0 mm 2 m/S 751 mmHg 68%
    07:00 +19°C° 0 mm 2 m/S 751 mmHg 65%
    08:00 +21°C° 0 mm 2 m/S 751 mmHg 58%
    09:00 +24°C° 0 mm 2 m/S 751 mmHg 51%
    10:00 +26°C° 0 mm 1 m/S 751 mmHg 44%
    11:00 +26°C° 0 mm 2 m/S 750 mmHg 43%
    12:00 +27°C° 0 mm 2 m/S 750 mmHg 42%
    13:00 +27°C° 0 mm 2 m/S 749 mmHg 41%
    14:00 +26°C° 0 mm 2 m/S 749 mmHg 44%
    15:00 +26°C° 0 mm 2 m/S 749 mmHg 47%
    16:00 +25°C° 0 mm 2 m/S 749 mmHg 51%
    17:00 +24°C° 0 mm 2 m/S 749 mmHg 56%
    18:00 +22°C° 0 mm 1 m/S 749 mmHg 61%
    19:00 +21°C° 0 mm 1 m/S 749 mmHg 67%
    20:00 +21°C° 0 mm 1 m/S 749 mmHg 68%
    21:00 +20°C° 0 mm 1 m/S 749 mmHg 70%
    22:00 +20°C° 0 mm 1 m/S 749 mmHg 72%
    23:00 +20°C° 0 mm 1 m/S 749 mmHg 72%

    übermorgen, 18 Oktober, Donnerstag

    Zeit Temperatur Niederschläge Wind Luftdruck Luftfeuchtigkeit
    00:00 +19°C° 0 mm 1 m/S 749 mmHg 72%
    01:00 +19°C° 0 mm 1 m/S 749 mmHg 72%
    02:00 +18°C° 0 mm 2 m/S 748 mmHg 71%
    03:00 +18°C° 0 mm 2 m/S 748 mmHg 71%
    04:00 +17°C° 0 mm 2 m/S 748 mmHg 70%
    05:00 +18°C° 0 mm 2 m/S 748 mmHg 67%
    06:00 +18°C° 0 mm 2 m/S 748 mmHg 65%
    07:00 +19°C° 0 mm 2 m/S 749 mmHg 63%
    08:00 +21°C° 0 mm 2 m/S 749 mmHg 56%
    09:00 +24°C° 0 mm 2 m/S 749 mmHg 49%
    10:00 +26°C° 0 mm 2 m/S 749 mmHg 42%
    11:00 +26°C° 0 mm 2 m/S 748 mmHg 41%
    12:00 +27°C° 0 mm 2 m/S 748 mmHg 40%
    13:00 +28°C° 0 mm 2 m/S 748 mmHg 40%
    14:00 +27°C° 0 mm 2 m/S 748 mmHg 43%
    15:00 +26°C° 0 mm 2 m/S 748 mmHg 47%
    16:00 +25°C° 0 mm 2 m/S 748 mmHg 51%
    17:00 +24°C° 0 mm 1 m/S 748 mmHg 57%
    18:00 +22°C° 0 mm 1 m/S 748 mmHg 62%
    19:00 +21°C° 0 mm 1 m/S 748 mmHg 68%
    20:00 +21°C° 0 mm 1 m/S 749 mmHg 70%
    21:00 +20°C° 0 mm 1 m/S 749 mmHg 72%
    22:00 +20°C° 0 mm 1 m/S 749 mmHg 75%
    23:00 +20°C° 0 mm 1 m/S 749 mmHg 75%

    19 Oktober, Freitag

    Zeit Temperatur Niederschläge Wind Luftdruck Luftfeuchtigkeit
    00:00 +20°C° 0 mm 1 m/S 749 mmHg 75%
    01:00 +19°C° 0 mm 2 m/S 749 mmHg 75%
    02:00 +19°C° 0 mm 2 m/S 748 mmHg 74%
    03:00 +19°C° 0 mm 2 m/S 748 mmHg 73%
    04:00 +19°C° 0 mm 2 m/S 748 mmHg 71%
    05:00 +19°C° 0 mm 2 m/S 749 mmHg 70%
    06:00 +19°C° 0 mm 2 m/S 749 mmHg 68%
    07:00 +19°C° 0 mm 2 m/S 749 mmHg 67%
    08:00 +21°C° 0 mm 2 m/S 749 mmHg 60%
    09:00 +24°C° 0 mm 2 m/S 749 mmHg 54%
    10:00 +25°C° 0 mm 2 m/S 749 mmHg 47%
    11:00 +25°C° 0 mm 2 m/S 749 mmHg 47%
    12:00 +26°C° 0 mm 2 m/S 749 mmHg 46%
    13:00 +26°C° 0 mm 2 m/S 748 mmHg 46%
    14:00 +26°C° 0 mm 2 m/S 748 mmHg 48%
    15:00 +25°C° 0 mm 2 m/S 748 mmHg 50%
    16:00 +25°C° 0 mm 2 m/S 748 mmHg 52%
    17:00 +24°C° 0 mm 2 m/S 748 mmHg 57%
    18:00 +23°C° 0 mm 2 m/S 749 mmHg 62%
    19:00 +20°C° 0 mm 2 m/S 749 mmHg 67%
    20:00 +20°C° 0 mm 2 m/S 749 mmHg 68%
    21:00 +20°C° 0 mm 2 m/S 749 mmHg 69%
    22:00 +20°C° 0 mm 2 m/S 749 mmHg 70%
    23:00 +20°C° 0 mm 2 m/S 749 mmHg 71%

    20 Oktober, Samstag

    Zeit Temperatur Niederschläge Wind Luftdruck Luftfeuchtigkeit
    00:00 +20°C° 0 mm 2 m/S 749 mmHg 71%
    01:00 +19°C° 0 mm 2 m/S 749 mmHg 71%
    02:00 +19°C° 0 mm 2 m/S 749 mmHg 71%
    03:00 +19°C° 0 mm 2 m/S 749 mmHg 72%
    04:00 +19°C° 0 mm 2 m/S 749 mmHg 72%
    05:00 +19°C° 0 mm 2 m/S 749 mmHg 70%
    06:00 +20°C° 0 mm 2 m/S 749 mmHg 68%
    07:00 +20°C° 0 mm 2 m/S 749 mmHg 67%
    08:00 +23°C° 0 mm 2 m/S 750 mmHg 58%
    09:00 +25°C° 0 mm 2 m/S 750 mmHg 49%
    10:00 +27°C° 0 mm 2 m/S 750 mmHg 41%
    11:00 +28°C° 0 mm 2 m/S 750 mmHg 39%
    12:00 +28°C° 0 mm 2 m/S 749 mmHg 37%
    13:00 +29°C° 0 mm 2 m/S 749 mmHg 35%
    14:00 +28°C° 0 mm 2 m/S 749 mmHg 38%
    15:00 +27°C° 0 mm 2 m/S 749 mmHg 41%
    16:00 +26°C° 0 mm 2 m/S 749 mmHg 44%
    17:00 +25°C° 0 mm 2 m/S 749 mmHg 49%
    18:00 +23°C° 0 mm 2 m/S 749 mmHg 54%
    19:00 +21°C° 0 mm 2 m/S 750 mmHg 59%
    20:00 +21°C° 0 mm 2 m/S 750 mmHg 60%
    21:00 +21°C° 0 mm 1 m/S 750 mmHg 62%
    22:00 +21°C° 0 mm 1 m/S 750 mmHg 63%
    23:00 +20°C° 0 mm 1 m/S 750 mmHg 64%

    21 Oktober, Sonntag

    Zeit Temperatur Niederschläge Wind Luftdruck Luftfeuchtigkeit
    00:00 +20°C° 0 mm 1 m/S 750 mmHg 65%
    01:00 +20°C° 0 mm 1 m/S 750 mmHg 65%
    02:00 +20°C° 0 mm 1 m/S 750 mmHg 65%
    03:00 +20°C° 0 mm 1 m/S 750 mmHg 66%
    04:00 +18°C° 0 mm 2 m/S 750 mmHg 66%
    05:00 +19°C° 0 mm 2 m/S 750 mmHg 64%
    06:00 +19°C° 0 mm 2 m/S 750 mmHg 63%
    07:00 +20°C° 0 mm 2 m/S 751 mmHg 62%
    08:00 +21°C° 0 mm 2 m/S 751 mmHg 55%
    09:00 +24°C° 0 mm 2 m/S 751 mmHg 49%
    10:00 +26°C° 0 mm 2 m/S 751 mmHg 42%
    11:00 +26°C° 0 mm 2 m/S 751 mmHg 42%
    12:00 +26°C° 0 mm 2 m/S 750 mmHg 42%
    13:00 +26°C° 0 mm 2 m/S 750 mmHg 42%
    14:00 +25°C° 0 mm 2 m/S 750 mmHg 46%
    15:00 +24°C° 0 mm 2 m/S 750 mmHg 51%
    16:00 +23°C° 0 mm 2 m/S 750 mmHg 55%
    17:00 +23°C° 0.1 mm 2 m/S 750 mmHg 60%
    18:00 +21°C° 0.1 mm 2 m/S 750 mmHg 64%
    19:00 +20°C° 0.1 mm 2 m/S 751 mmHg 68%
    20:00 +19°C° 0.2 mm 2 m/S 751 mmHg 71%
    21:00 +19°C° 0.2 mm 2 m/S 751 mmHg 73%
    22:00 +19°C° 0.2 mm 2 m/S 751 mmHg 76%
    23:00 +18°C° 0.1 mm 2 m/S 751 mmHg 76%
    Mehr zeigen